This is the latest recevied weather packets stored in our database for station/object F5ZQC-13. If no packets are shown the sender has not sent any weather packets the latest 10 day(s).
| Time | Temp. | Humidity | Pressure | Rain* | Wind** | Luminosity | Snow |
|---|---|---|---|---|---|---|---|
| 1777596518 | 17.22° C | 57% | 1017.1 hPa | 0 mm | - | - | - |
| 1777596397 | 17.22° C | 58% | 1017.1 hPa | 0 mm | - | - | - |
| 1777596275 | 17.22° C | 58% | 1016.9 hPa | 0 mm | - | - | - |
| 1777596153 | 17.22° C | 58% | 1017.2 hPa | 0 mm | - | - | - |
| 1777595890 | 17.22° C | 58% | 1016.9 hPa | 0 mm | - | - | - |
| 1777595571 | 17.22° C | 60% | 1017.1 hPa | 0 mm | - | - | - |
| 1777595376 | 17.22° C | 58% | 1017.3 hPa | 0 mm | - | - | - |
| 1777595176 | 17.22° C | 55% | 1017.1 hPa | 0 mm | - | - | - |
| 1777595131 | 17.22° C | 55% | 1017.1 hPa | 0 mm | - | - | - |
| 1777595009 | 17.22° C | 58% | 1017.1 hPa | 0 mm | - | - | - |
| 1777594877 | 17.22° C | 58% | 1017.3 hPa | 0 mm | - | - | - |
| 1777594755 | 16.67° C | 58% | 1017.1 hPa | 0 mm | - | - | - |
| 1777594571 | 17.22° C | 58% | 1017.3 hPa | 0 mm | - | - | - |
| 1777594528 | 16.67° C | 59% | 1016.8 hPa | 0 mm | - | - | - |
| 1777594284 | 16.67° C | 61% | 1017.3 hPa | 0 mm | - | - | - |
| 1777594072 | 16.67° C | 56% | 1016.9 hPa | 0 mm | - | - | - |
| 1777594040 | 16.67° C | 56% | 1016.9 hPa | 0 mm | - | - | - |
| 1777593986 | 16.67° C | 59% | 1017 hPa | 0 mm | - | - | - |
| 1777593863 | 16.67° C | 58% | 1017 hPa | 0 mm | - | - | - |
| 1777593741 | 16.67° C | 59% | 1017.1 hPa | 0 mm | - | - | - |
| 1777593698 | 16.67° C | 59% | 1017 hPa | 0 mm | - | - | - |
| 1777593618 | 16.67° C | 59% | 1017 hPa | 0 mm | - | - | - |
| 1777593398 | 16.67° C | 59% | 1017.1 hPa | 0 mm | - | - | - |
| 1777593275 | 16.67° C | 60% | 1017 hPa | 0 mm | - | - | - |
| 1777592979 | 16.67° C | 58% | 1017 hPa | 0 mm | - | - | - |
* Rain since midnight (hover to see other rain measurements)
** Current wind speed in m/s (hover to see current wind gust speed)